"2010-10-30 00:00:00",291181,9.74,301.5,2.145,0.304,18.39,107.6975,18.98,19.95,13.68,0,110.8,13.21,19.80,263.5
"2010-10-30 00:00:30",291182,9.13,301.5,1.57,0.445,18.32,107.6972,18.98,19.93,13.79,0,110.8,13.21,19.80,263.5
"2010-10-30 00:01:00",291183,8.72,298.4,1.912,0.208,18.43,107.6829,18.95,19.92,13.72,0,110.8,13.21,19.76,260.4
"2010-10-30 00:01:30",291184,9.17,301.1,1.65,0.205,18.25,107.6685,18.91,19.91,13.84,0,110.8,13.22,19.73,263.1
"2010-10-30 00:02:00",291185,8.77,302.9,2.896,0.442,18.35,107.6646,18.9,19.88,13.87,0,110.8,13.22,19.72,264.9
"2010-10-30 00:02:30",291186,8.33,301.2,3.285,0.912,18.35,107.6668,18.9,19.87,13.82,0,110.8,13.22,19.72,263.2
"2010-10-30 00:03:00",291187,8.94,294.1,4.191,0.395,18.4,107.6665,18.9,19.86,13.75,0,110.8,13.22,19.72,256.1
"2010-10-30 00:03:30",291188,8.85,297.3,3.897,0.625,18.45,107.6667,18.9,19.84,13.65,0,110.7,13.22,19.72,259.3
"2010-10-30 00:04:00",291189,8.43,300.3,4.003,0.626,18.43,107.665,18.9,19.82,13.69,0,110.7,13.22,19.72,262.3
"2010-10-30 00:04:30",291190,7.779,302.3,4.101,0.415,18.48,107.6686,18.91,19.82,13.64,0,110.7,13.22,19.73,264.3
"2010-10-30 00:05:00",291191,7.659,300.5,2.326,0.37,18.55,107.6695,18.91,19.83,13.58,0,110.7,13.22,19.73,262.5
"2010-10-30 00:05:30",291192,7.748,303,2.478,0.537,18.56,107.6734,18.92,19.82,13.52,0,110.7,13.21,19.74,265.0
"2010-10-30 00:06:00",291193,6.942,307.3,3.268,0.254,18.61,107.681,18.94,19.85,13.46,0,110.7,13.21,19.76,269.3
"2010-10-30 00:06:30",291194,7.874,303.8,1.934,0.443,18.47,107.6925,18.97,19.85,13.47,0,110.7,13.21,19.79,265.8
"2010-10-30 00:07:00",291195,8.02,306.7,3.506,0.312,18.46,107.6979,18.98,19.87,13.44,0,110.7,13.22,19.80,268.7
"2010-10-30 00:07:30",291196,8.01,303,3.589,0.382,18.41,107.6996,18.99,19.87,13.45,0,110.7,13.22,19.81,265.0
"2010-10-30 00:08:00",291197,9.28,297.7,3.664,0.587,18.33,107.6941,18.98,19.86,13.48,0,110.7,13.22,19.79,259.7
"2010-10-30 00:08:30",291198,9.6,296.2,3.048,0.31,18.37,107.6937,18.97,19.85,13.46,0,110.7,13.22,19.79,258.2
"2010-10-30 00:09:00",291199,9.88,296.7,1.728,0.367,18.37,107.6915,18.97,19.84,13.44,0,110.7,13.22,19.79,258.7
"2010-10-30 00:09:30",291200,8.75,299.1,2.04,0.4,18.39,107.676,18.93,19.83,13.46,0,110.7,13.22,19.75,261.1
"2010-10-30 00:10:00",291201,10.36,297.2,2.113,0.388,18.38,107.6684,18.91,19.82,13.48,0,110.7,13.22,19.73,259.2
"2010-10-30 00:10:30",291202,9.97,298.9,2.439,0.458,18.4,107.6639,18.9,19.8,13.5,0,110.7,13.22,19.72,260.9
"2010-10-30 00:11:00",291203,10.42,298.4,1.603,0.328,18.32,107.6648,18.9,19.8,13.51,0,110.7,13.23,19.72,260.4
"2010-10-30 00:11:30",291204,9.99,298.8,2.394,0.44,18.32,107.6632,18.9,19.79,13.52,0,110.7,13.23,19.71,260.8
"2010-10-30 00:12:00",291205,10.3,299.5,2.069,0.39,18.36,107.6517,18.87,19.77,13.48,0,110.7,13.23,19.68,261.5
"2010-10-30 00:12:30",291206,10.48,295.1,3.075,0.412,18.31,107.6362,18.83,19.77,13.49,0,110.7,13.23,19.64,257.1
"2010-10-30 00:13:00",291207,10.28,298.8,1.614,0.407,18.35,107.6326,18.82,19.75,13.45,0,110.7,13.23,19.63,260.8
"2010-10-30 00:13:30",291208,11.26,296.9,1.486,0.365,18.33,107.6326,18.82,19.74,13.46,0,110.7,13.23,19.63,258.9
"2010-10-30 00:14:00",291209,10.23,298,1.805,0.602,18.32,107.6326,18.82,19.74,13.51,0,110.7,13.23,19.63,260.0
"2010-10-30 00:14:30",291210,9.66,297.4,2.18,0.172,18.42,107.632,18.82,19.72,13.49,0,110.7,13.23,19.63,259.4
"2010-10-30 00:15:00",291211,9.66,296.2,2.391,0.256,18.45,107.6314,18.81,19.7,13.41,0,110.7,13.23,19.63,258.2
"2010-10-30 00:15:30",291212,9.16,298.6,2.462,0.328,18.42,107.6311,18.81,19.71,13.38,0,110.7,13.23,19.63,260.6
"2010-10-30 00:16:00",291213,9.24,294.5,2.446,0.308,18.41,107.6278,18.8,19.7,13.36,0,110.7,13.23,19.62,256.5
"2010-10-30 00:16:30",291214,10.04,298.2,2.406,0.626,18.36,107.6216,18.79,19.69,13.35,0,110.7,13.23,19.61,260.2
"2010-10-30 00:17:00",291215,10.16,294.1,2.952,0.457,18.38,107.6114,18.76,19.69,13.32,0,110.7,13.23,19.58,256.1
"2010-10-30 00:17:30",291216,9.47,293.7,1.288,0.227,18.39,107.61,18.76,19.69,13.23,0,110.7,13.23,19.58,255.7
"2010-10-30 00:18:00",291217,8.37,297.8,3.07,0.496,18.42,107.61,18.76,19.69,13.28,0,110.7,13.23,19.58,259.8
"2010-10-30 00:18:30",291218,9.02,297.6,1.848,0.685,18.47,107.6193,18.78,19.7,13.22,0,110.7,13.23,19.60,259.6
"2010-10-30 00:19:00",291219,8.21,296.7,3.269,0.366,18.49,107.6292,18.81,19.7,13.19,0,110.7,13.23,19.63,258.7
"2010-10-30 00:19:30",291220,8.18,292,3.387,0.631,18.52,107.6326,18.82,19.71,13.05,0,110.7,13.23,19.63,254.0
"2010-10-30 00:20:00",291221,7.246,296.6,2.922,0.487,18.63,107.6328,18.82,19.71,12.99,0,110.7,13.24,19.64,258.6
"2010-10-30 00:20:30",291222,8.04,296.8,1.795,0.249,18.5,107.6458,18.85,19.74,12.97,0,110.7,13.24,19.67,258.8
"2010-10-30 00:21:00",291223,8.03,298.3,1.82,0.352,18.55,107.6568,18.88,19.76,12.77,0,110.7,13.24,19.70,260.3
"2010-10-30 00:21:30",291224,7.803,301.6,1.438,0.659,18.4,107.6679,18.91,19.76,12.8,0,110.7,13.24,19.73,263.6
"2010-10-30 00:22:00",291225,8.21,303,2.25,0.548,18.37,107.6712,18.92,19.78,13.16,0,110.7,13.24,19.73,265.0
"2010-10-30 00:22:30",291226,9.37,299.8,1.996,0.281,18.26,107.6635,18.9,19.79,13.26,0,110.7,13.23,19.71,261.8
"2010-10-30 00:23:00",291227,8.98,299.5,1.869,0.31,18.37,107.6533,18.87,19.77,13.1,0,110.7,13.23,19.69,261.5
"2010-10-30 00:23:30",291228,10.32,299.7,2.144,0.837,18.22,107.6444,18.85,19.77,13.31,0,110.7,13.23,19.67,261.7
"2010-10-30 00:24:00",291229,10.55,299.5,2.398,0.365,18.07,107.6394,18.83,19.75,13.51,0,110.7,13.23,19.65,261.5
"2010-10-30 00:24:30",291230,9.99,300.1,3.819,0.38,18.25,107.6178,18.78,19.72,13.5,0,110.7,13.23,19.60,262.1
"2010-10-30 00:25:00",291231,9.59,296.9,2.776,0.538,18.48,107.6188,18.78,19.72,13.29,0,110.7,13.23,19.60,258.9
"2010-10-30 00:25:30",291232,8.9,296.2,2.405,0.374,18.45,107.6206,18.79,19.68,13.2,0,110.7,13.23,19.60,258.2
"2010-10-30 00:26:00",291233,8.3,302.3,5.87,0.536,18.54,107.6239,18.79,19.69,13.11,0,110.7,13.23,19.61,264.3
"2010-10-30 00:26:30",291234,8.75,300.6,5.454,0.413,18.3,107.6257,18.8,19.68,13.15,0,110.7,13.23,19.62,262.6
"2010-10-30 00:27:00",291235,8.91,302.4,5.623,1.533,18.23,107.626,18.8,19.69,13.26,0,110.7,13.23,19.62,264.4
"2010-10-30 00:27:30",291236,12.07,293.2,2.765,1.335,18.04,107.6258,18.8,19.68,13.52,0,110.7,13.23,19.62,255.2
"2010-10-30 00:28:00",291237,12.5,293.5,5.254,0.666,18.17,107.6063,18.75,19.66,13.74,0,110.7,13.24,19.57,255.5
"2010-10-30 00:28:30",291238,12.3,291.2,2.126,0.352,18.05,107.5986,18.73,19.63,13.72,0,110.7,13.24,19.55,253.2
"2010-10-30 00:29:00",291239,12.03,292.7,3.33,0.405,18.08,107.5773,18.68,19.62,14.02,0,110.7,13.24,19.49,254.7
"2010-10-30 00:29:30",291240,11.44,296.4,1.517,0.283,18.1,107.5658,18.65,19.6,13.91,0,110.7,13.25,19.46,258.4
"2010-10-30 00:30:00",291241,11.11,293.1,2.063,0.875,18.19,107.5584,18.63,19.57,13.88,0,110.7,13.25,19.44,255.1
"2010-10-30 00:30:30",291242,10.48,295.4,2.201,0.428,18.11,107.5363,18.57,19.53,13.97,0,110.7,13.25,19.39,257.4
"2010-10-30 00:31:00",291243,9.5,296.5,3.219,0.602,18.5,107.5338,18.56,19.5,13.62,0,110.7,13.25,19.38,258.5
"2010-10-30 00:31:30",291244,10.4,295.9,2.763,1.043,18.06,107.5335,18.56,19.48,13.76,0,110.7,13.25,19.38,257.9
"2010-10-30 00:32:00",291245,11.35,293.4,1.075,0.273,18.12,107.5338,18.56,19.49,14.02,0,110.7,13.25,19.38,255.4
"2010-10-30 00:32:30",291246,10.1,295,2.704,0.726,18.32,107.5329,18.56,19.47,13.63,0,110.7,13.25,19.38,257.0
"2010-10-30 00:33:00",291247,10.06,295.7,1.425,0.273,18.26,107.5338,18.56,19.45,13.61,0,110.7,13.25,19.38,257.7
"2010-10-30 00:33:30",291248,10.67,295.7,2.109,0.698,18.24,107.5324,18.56,19.45,13.68,0,110.7,13.25,19.38,257.7
"2010-10-30 00:34:00",291249,9.48,293,2.751,0.502,18.42,107.5335,18.56,19.44,13.39,0,110.7,13.25,19.38,255.0
"2010-10-30 00:34:30",291250,11.35,295,3.641,0.514,17.99,107.5329,18.56,19.44,13.86,0,110.7,13.25,19.38,257.0
"2010-10-30 00:35:00",291251,11.35,298.6,3.364,0.374,18.04,107.5132,18.51,19.43,14.02,0,110.7,13.25,19.33,260.6
"2010-10-30 00:35:30",291252,12.34,296.3,4.147,0.449,18.18,107.5003,18.48,19.42,13.86,0,110.7,13.25,19.29,258.3
"2010-10-30 00:36:00",291253,10.82,293.7,4.557,0.929,18.19,107.5,18.48,19.39,13.76,0,110.7,13.25,19.29,255.7
"2010-10-30 00:36:30",291254,11.9,287,4.508,0.766,18.31,107.5,18.48,19.4,13.75,0,110.7,13.25,19.29,249.0
"2010-10-30 00:37:00",291255,12.67,294.1,2.991,0.593,18.15,107.5,18.48,19.39,13.8,0,110.7,13.25,19.29,256.1
"2010-10-30 00:37:30",291256,12.06,293.8,3.588,0.584,18.17,107.5,18.48,19.39,13.83,0,110.7,13.25,19.29,255.8
"2010-10-30 00:38:00",291257,11.3,292.6,2.916,0.487,18.34,107.5,18.48,19.37,13.61,0,110.7,13.25,19.29,254.6
"2010-10-30 00:38:30",291258,9.84,295.4,4.251,0.553,18.37,107.5,18.48,19.38,13.31,0,110.6,13.25,19.29,257.4
"2010-10-30 00:39:00",291259,10.8,294.2,4.198,1.525,18.18,107.5028,18.48,19.4,13.52,0,110.7,13.25,19.30,256.2
"2010-10-30 00:39:30",291260,11.96,287.3,5,1.029,18.26,107.5011,18.48,19.41,13.64,0,110.7,13.25,19.30,249.3
"2010-10-30 00:40:00",291261,8.85,281.2,8.52,1.205,18.34,107.502,18.48,19.41,13.51,0,110.6,13.25,19.30,243.2
"2010-10-30 00:40:30",291262,7.731,296.2,6.39,0.855,18.42,107.5253,18.54,19.4,13.09,0,110.6,13.24,19.36,258.2
"2010-10-30 00:41:00",291263,11.82,297.5,2.279,0.621,17.89,107.5338,18.56,19.43,13.75,0,110.6,13.24,19.38,259.5
"2010-10-30 00:41:30",291264,12.58,294.9,1.123,0.455,17.79,107.5107,18.5,19.43,14.32,0,110.6,13.25,19.32,256.9
"2010-10-30 00:42:00",291265,12.17,290.1,1.96,0.498,17.94,107.4992,18.48,19.4,14.34,0,110.6,13.25,19.29,252.1
"2010-10-30 00:42:30",291266,12.19,289.8,1.451,0.439,18.04,107.4721,18.41,19.37,14.22,0,110.6,13.25,19.22,251.8
"2010-10-30 00:43:00",291267,11.08,290,3.288,0.845,18.15,107.4662,18.39,19.34,14.15,0,110.6,13.24,19.21,252.0
"2010-10-30 00:43:30",291268,9.72,290.9,4.172,0.418,18.28,107.4662,18.39,19.31,13.76,0,110.6,13.25,19.21,252.9
"2010-10-30 00:44:00",291269,11,295.6,4.059,0.861,18.04,107.4662,18.39,19.31,13.94,0,110.6,13.25,19.21,257.6
"2010-10-30 00:44:30",291270,9.99,297.5,5.617,0.731,18.24,107.4637,18.38,19.3,13.94,0,110.6,13.25,19.20,259.5
"2010-10-30 00:45:00",291271,11.8,297,3.619,0.547,18.01,107.46,18.37,19.32,14.03,0,110.6,13.25,19.19,259.0
"2010-10-30 00:45:30",291272,11.56,296.2,2.939,0.326,17.98,107.4409,18.33,19.29,14.13,0,110.6,13.25,19.14,258.2
"2010-10-30 00:46:00",291273,13.42,292.6,2,0.74,17.97,107.4324,18.3,19.28,14.43,0,110.6,13.25,19.12,254.6
"2010-10-30 00:46:30",291274,13.6,290.6,1.21,0.424,18.02,107.4316,18.3,19.26,14.41,0,110.6,13.25,19.12,252.6
"2010-10-30 00:47:00",291275,14.23,291,1.844,0.646,18.01,107.4259,18.29,19.24,14.28,0,110.6,13.26,19.10,253.0
"2010-10-30 00:47:30",291276,14.25,290.9,2.045,0.463,18.03,107.4032,18.23,19.23,14.35,0,110.6,13.26,19.04,252.9
"2010-10-30 00:48:00",291277,13.27,288.9,3.095,1.024,18.09,107.3987,18.22,19.2,14.29,0,110.6,13.26,19.03,250.9
"2010-10-30 00:48:30",291278,11.18,290.1,2.093,0.398,18.15,107.3987,18.22,19.19,14.14,0,110.6,13.26,19.03,252.1
"2010-10-30 00:49:00",291279,11.51,287.3,3.009,0.699,18.28,107.3989,18.22,19.19,13.95,0,110.6,13.26,19.03,249.3
"2010-10-30 00:49:30",291280,11.88,286.4,4.507,1.047,18.41,107.3996,18.22,19.17,13.67,0,110.6,13.25,19.04,248.4
"2010-10-30 00:50:00",291281,10.87,283.9,5.276,1.116,18.49,107.4147,18.26,19.19,13.33,0,110.6,13.26,19.07,245.9
"2010-10-30 00:50:30",291282,11.03,288.6,3.973,0.341,18.3,107.4349,18.31,19.2,13.34,0,110.6,13.26,19.13,250.6
"2010-10-30 00:51:00",291283,9.93,288.5,3.356,0.936,18.21,107.4352,18.31,19.22,13.62,0,110.6,13.26,19.13,250.5
"2010-10-30 00:51:30",291284,9.76,294.4,2.462,0.974,18.35,107.4401,18.32,19.24,13.35,0,110.6,13.26,19.14,256.4
"2010-10-30 00:52:00",291285,9.85,292.7,3.996,0.374,18.1,107.4661,18.39,19.25,13.41,0,110.6,13.26,19.21,254.7
"2010-10-30 00:52:30",291286,10.65,292.7,2.191,0.566,18.06,107.4685,18.4,19.26,13.78,0,110.6,13.26,19.21,254.7
"2010-10-30 00:53:00",291287,10.39,295.6,2.175,0.416,18.12,107.4609,18.38,19.26,13.83,0,110.6,13.26,19.19,257.6
"2010-10-30 00:53:30",291288,10.48,296.8,3.486,0.588,17.99,107.4619,18.38,19.26,13.82,0,110.6,13.26,19.20,258.8
"2010-10-30 00:54:00",291289,11.47,298.3,2.56,0.86,17.94,107.4538,18.36,19.25,14.01,0,110.6,13.26,19.17,260.3
"2010-10-30 00:54:30",291290,11.25,298.2,3.444,0.572,17.91,107.4524,18.36,19.25,14.21,0,110.6,13.26,19.17,260.2
"2010-10-30 00:55:00",291291,12.89,296,2.989,0.876,17.87,107.4506,18.35,19.23,14.35,0,110.6,13.26,19.17,258.0
"2010-10-30 00:55:30",291292,11.94,296.2,2.398,0.504,17.94,107.4255,18.29,19.22,14.32,0,110.6,13.26,19.10,258.2
"2010-10-30 00:56:00",291293,10.64,299.3,3.728,0.406,17.96,107.424,18.28,19.21,14.29,0,110.6,13.26,19.10,261.3
"2010-10-30 00:56:30",291294,11.81,294.9,4.461,1.3,17.99,107.4198,18.27,19.17,14.28,0,110.6,13.26,19.09,256.9
"2010-10-30 00:57:00",291295,10.64,295.9,5.101,1.187,18.15,107.4016,18.22,19.16,14.15,0,110.6,13.26,19.04,257.9
"2010-10-30 00:57:30",291296,9.76,297,2.658,1.055,18.1,107.405,18.23,19.15,14.04,0,110.6,13.25,19.05,259.0
"2010-10-30 00:58:00",291297,10.75,298.5,3.014,0.907,18,107.4006,18.22,19.15,14.18,0,110.6,13.25,19.04,260.5
"2010-10-30 00:58:30",291298,10.75,294.7,4.813,0.629,18.16,107.3941,18.21,19.14,14.1,0,110.6,13.25,19.02,256.7
"2010-10-30 00:59:00",291299,11.3,295.9,2.82,0.624,18.08,107.3988,18.22,19.13,14.04,0,110.6,13.25,19.03,257.9
"2010-10-30 00:59:30",291300,11.46,293.8,2.778,0.881,18,107.3981,18.22,19.12,14.2,0,110.6,13.25,19.03,255.8
"2010-10-30 01:00:00",291301,10.8,293.2,5.659,1.14,17.97,107.3969,18.21,19.1,14.25,0,110.6,13.25,19.03,255.2
"2010-10-30 01:00:30",291302,11.06,294.9,4.034,0.909,18.01,107.3981,18.22,19.1,14.21,0,110.6,13.25,19.03,256.9
"2010-10-30 01:01:00",291303,11.43,290,3.27,1.043,17.89,107.3999,18.22,19.1,14.41,0,110.6,13.26,19.04,252.0
"2010-10-30 01:01:30",291304,10.58,292.6,4.034,0.802,17.92,107.3888,18.19,19.09,14.34,0,110.6,13.26,19.01,254.6
"2010-10-30 01:02:00",291305,10.62,289.3,2.302,1.229,18.03,107.3684,18.14,19.07,14.27,0,110.6,13.26,18.96,251.3
"2010-10-30 01:02:30",291306,12.78,289,1.638,0.946,17.95,107.3661,18.13,19.05,14.31,0,110.6,13.26,18.95,251.0
"2010-10-30 01:03:00",291307,12.65,291.8,2.905,0.407,17.9,107.3673,18.14,19.04,14.41,0,110.6,13.26,18.95,253.8
"2010-10-30 01:03:30",291308,13.02,292.2,3.387,0.572,17.93,107.3671,18.14,19.03,14.41,0,110.6,13.26,18.95,254.2
"2010-10-30 01:04:00",291309,11.46,295.6,4.245,0.574,18.05,107.3657,18.13,19,14.29,0,110.6,13.26,18.95,257.6
"2010-10-30 01:04:30",291310,11.58,286.8,6.33,0.955,18.07,107.3657,18.13,19.01,14.15,0,110.6,13.26,18.95,248.8
"2010-10-30 01:05:00",291311,10.66,285.4,3.806,0.793,18.11,107.3628,18.13,19.01,14.13,0,110.6,13.26,18.94,247.4
"2010-10-30 01:05:30",291312,9.41,290.6,3.701,0.48,18.14,107.3654,18.13,19,14.04,0,110.6,13.27,18.95,252.6
"2010-10-30 01:06:00",291313,9.53,288.4,3.042,0.426,18.19,107.3673,18.14,19,13.94,0,110.6,13.26,18.95,250.4
"2010-10-30 01:06:30",291314,10.71,289.7,2.808,0.638,18.18,107.3673,18.14,19.02,13.78,0,110.6,13.27,18.95,251.7
"2010-10-30 01:07:00",291315,11.28,285.8,2.952,0.713,18.27,107.3803,18.17,19.02,13.51,0,110.6,13.27,18.99,247.8
"2010-10-30 01:07:30",291316,10.82,291.8,2.588,0.567,18.12,107.3992,18.22,19.03,13.62,0,110.6,13.27,19.03,253.8
"2010-10-30 01:08:00",291317,9.62,294.3,3.303,0.888,18.11,107.4011,18.22,19.06,13.64,0,110.6,13.27,19.04,256.3
"2010-10-30 01:08:30",291318,9.52,295.5,1.924,0.511,18.2,107.4011,18.22,19.07,13.4,0,110.6,13.27,19.04,257.5
"2010-10-30 01:09:00",291319,10.74,293.9,4.222,0.93,18.1,107.4048,18.23,19.08,13.41,0,110.6,13.27,19.05,255.9
"2010-10-30 01:09:30",291320,10.4,288.6,1.828,0.495,18.21,107.4234,18.28,19.1,13.24,0,110.6,13.27,19.10,250.6
"2010-10-30 01:10:00",291321,11.92,289.8,3.105,0.936,18.24,107.4349,18.31,19.11,13.16,0,110.6,13.27,19.13,251.8
"2010-10-30 01:10:30",291322,13.21,288.7,3.295,0.439,18.56,107.4349,18.31,19.13,12.39,0,110.6,13.27,19.13,250.7
"2010-10-30 01:11:00",291323,12.17,293.6,2.024,0.262,18.35,107.4549,18.36,19.16,12.05,0,110.6,13.27,19.18,255.6
"2010-10-30 01:11:30",291324,11.87,295.1,1.579,0.267,18.2,107.4687,18.4,19.19,12.58,0,110.6,13.27,19.21,257.1
"2010-10-30 01:12:00",291325,12.6,296.3,2.262,0.491,18.19,107.4701,18.4,19.23,12.57,0,110.6,13.27,19.22,258.3
"2010-10-30 01:12:30",291326,13.23,297,1.433,0.591,18,107.4772,18.42,19.25,12.78,0,110.6,13.27,19.24,259.0
"2010-10-30 01:13:00",291327,12.32,295.5,3.4,0.333,18.15,107.4797,18.43,19.26,12.68,0,110.6,13.26,19.24,257.5
"2010-10-30 01:13:30",291328,13.7,291.2,1.687,0.907,18.12,107.4927,18.46,19.27,12.5,0,110.6,13.26,19.27,253.2
"2010-10-30 01:14:00",291329,14.34,293.3,3.032,0.829,18.05,107.4884,18.45,19.29,12.94,0,110.6,13.26,19.26,255.3
"2010-10-30 01:14:30",291330,13.38,292,2.55,0.821,18.21,107.4794,18.42,19.29,12.81,0,110.6,13.26,19.24,254.0
"2010-10-30 01:15:00",291331,13.71,291.1,4.177,0.976,18.37,107.4887,18.45,19.31,12.32,0,110.6,13.26,19.26,253.1
"2010-10-30 01:15:30",291332,14.16,292,2.515,0.668,18.38,107.5014,18.48,19.3,11.97,0,110.6,13.26,19.30,254.0
"2010-10-30 01:16:00",291333,13.11,293.9,1.509,0.658,18.29,107.5025,18.48,19.32,12.03,0,110.6,13.26,19.30,255.9
"2010-10-30 01:16:30",291334,13.22,295.6,2.252,0.267,18.35,107.5025,18.48,19.33,11.97,0,110.6,13.26,19.30,257.6
"2010-10-30 01:17:00",291335,14.55,295,2.294,0.666,18.21,107.5115,18.51,19.35,12.01,0,110.6,13.26,19.32,257.0
"2010-10-30 01:17:30",291336,16.16,295.1,2.974,0.521,18.2,107.5304,18.56,19.38,12.1,0,110.6,13.26,19.37,257.1
"2010-10-30 01:18:00",291337,16.26,292.2,3.224,0.842,18.51,107.536,18.57,19.39,11.65,0,110.6,13.26,19.39,254.2
"2010-10-30 01:18:30",291338,15.61,289.3,3.254,0.757,18.57,107.5363,18.57,19.41,11.28,0,110.6,13.27,19.39,251.3
"2010-10-30 01:19:00",291339,15.24,289,4.427,0.864,18.35,107.5434,18.59,19.43,11.31,0,110.6,13.27,19.41,251.0
"2010-10-30 01:19:30",291340,14.54,297.9,2.697,0.566,18.31,107.5679,18.65,19.45,11.41,0,110.6,13.27,19.47,259.9
"2010-10-30 01:20:00",291341,13.9,295.2,1.935,0.295,18.42,107.5701,18.66,19.47,11.45,0,110.6,13.27,19.47,257.2
"2010-10-30 01:20:30",291342,14.15,295.3,2.545,0.606,18.41,107.5704,18.66,19.49,11.05,0,110.6,13.27,19.47,257.3
"2010-10-30 01:21:00",291343,15.88,297,3.286,1.411,18.18,107.5814,18.69,19.52,11.42,0,110.6,13.27,19.50,259.0
"2010-10-30 01:21:30",291344,16.61,293.6,3.251,0.457,18.43,107.5943,18.72,19.54,11.58,0,110.6,13.27,19.54,255.6
"2010-10-30 01:22:00",291345,16.94,289.7,1.819,0.936,18.6,107.6039,18.74,19.57,10.92,0,110.6,13.27,19.56,251.7
"2010-10-30 01:22:30",291346,17.45,293.5,2.241,0.355,18.37,107.6039,18.74,19.59,11.01,0,110.6,13.27,19.56,255.5
"2010-10-30 01:23:00",291347,17.27,294.8,1.402,0.39,18.46,107.6039,18.74,19.59,10.91,0,110.6,13.27,19.56,256.8
"2010-10-30 01:23:30",291348,16.73,293.9,1.817,0.544,18.42,107.609,18.76,19.61,10.67,0,110.6,13.27,19.57,255.9
"2010-10-30 01:24:00",291349,17.48,291.1,1.692,0.496,18.43,107.6315,18.81,19.63,10.79,0,110.6,13.27,19.63,253.1
"2010-10-30 01:24:30",291350,17.48,292.6,1.364,0.598,18.41,107.6377,18.83,19.66,10.72,0,110.6,13.27,19.65,254.6
"2010-10-30 01:25:00",291351,16.38,294.8,2.48,0.369,18.25,107.6377,18.83,19.7,10.87,0,110.6,13.27,19.65,256.8
"2010-10-30 01:25:30",291352,15.52,298.1,2.113,0.686,18.26,107.6377,18.83,19.69,10.91,0,110.6,13.27,19.65,260.1
"2010-10-30 01:26:00",291353,16.43,295.8,2.931,0.65,18.31,107.6377,18.83,19.71,11.01,0,110.6,13.27,19.65,257.8
"2010-10-30 01:26:30",291354,15.58,293.9,1.797,0.502,18.48,107.6405,18.84,19.71,10.72,0,110.6,13.27,19.66,255.9
"2010-10-30 01:27:00",291355,16.14,291.2,2.024,0.701,18.69,107.6619,18.89,19.73,10.36,0,110.6,13.27,19.71,253.2
"2010-10-30 01:27:30",291356,16.82,296.5,3.024,0.459,18.09,107.6704,18.91,19.75,10.95,0,110.6,13.27,19.73,258.5
"2010-10-30 01:28:00",291357,16.5,296.6,0.914,0.641,18.17,107.6709,18.92,19.75,11.28,0,110.6,13.27,19.73,258.6
"2010-10-30 01:28:30",291358,15.35,298.3,2.402,0.514,18.18,107.6625,18.89,19.76,11.4,0,110.6,13.27,19.71,260.3
"2010-10-30 01:29:00",291359,14.91,298.7,1.931,1.021,18.32,107.6569,18.88,19.76,11.15,0,110.6,13.27,19.70,260.7
"2010-10-30 01:29:30",291360,15.28,298.5,1.332,0.586,18.44,107.6571,18.88,19.75,10.91,0,110.6,13.27,19.70,260.5
"2010-10-30 01:30:00",291361,14.04,295.3,2.126,0.365,18.57,107.6628,18.89,19.76,10.52,0,110.6,13.27,19.71,257.3
"2010-10-30 01:30:30",291362,14.39,300.9,3.14,0.477,18.48,107.6715,18.92,19.78,10.32,0,110.6,13.27,19.74,262.9
"2010-10-30 01:31:00",291363,13.23,298,2.141,0.309,18.62,107.6715,18.92,19.78,10.17,0,110.6,13.26,19.74,260.0
"2010-10-30 01:31:30",291364,13.11,297.5,2.209,0.9,18.5,107.6777,18.93,19.8,10.23,0,110.6,13.26,19.75,259.5
"2010-10-30 01:32:00",291365,14.37,294.2,2.004,0.383,18.34,107.6974,18.98,19.82,10.51,0,110.6,13.26,19.80,256.2
"2010-10-30 01:32:30",291366,15.93,293.9,1.666,0.463,18.21,107.7011,18.99,19.83,10.81,0,110.6,13.26,19.81,255.9
"2010-10-30 01:33:00",291367,15.85,295,1.487,0.559,18.19,107.6864,18.96,19.84,11.09,0,110.6,13.26,19.77,257.0
"2010-10-30 01:33:30",291368,16.53,293.4,1.931,0.766,18.16,107.6718,18.92,19.84,11.23,0,110.6,13.26,19.74,255.4
"2010-10-30 01:34:00",291369,17.8,293.5,1.361,0.65,18.26,107.6715,18.92,19.83,11.19,0,110.6,13.26,19.74,255.5
"2010-10-30 01:34:30",291370,15.53,290.3,2.664,0.828,18.69,107.6715,18.92,19.82,10.47,0,110.6,13.26,19.74,252.3
"2010-10-30 01:35:00",291371,15.46,297.7,2.846,0.569,18.29,107.6715,18.92,19.83,10.47,0,110.6,13.27,19.74,259.7
"2010-10-30 01:35:30",291372,14.9,300.5,2.237,0.395,18.19,107.6715,18.92,19.81,10.89,0,110.6,13.27,19.74,262.5
"2010-10-30 01:36:00",291373,16.41,295.4,4.321,0.752,18.35,107.6715,18.92,19.81,11.13,0,110.6,13.27,19.74,257.4
"2010-10-30 01:36:30",291374,17.92,294.4,1.312,0.753,18.44,107.6715,18.92,19.82,10.69,0,110.6,13.27,19.74,256.4
"2010-10-30 01:37:00",291375,16.96,291.1,1.947,0.773,18.74,107.6715,18.92,19.82,10.09,0,110.6,13.27,19.74,253.1
"2010-10-30 01:37:30",291376,15.39,294.2,2.611,0.744,18.76,107.6721,18.92,19.81,9.58,0,110.6,13.27,19.74,256.2
"2010-10-30 01:38:00",291377,16.01,293.4,1.744,1.058,18.63,107.696,18.98,19.84,9.66,0,110.6,13.27,19.80,255.4
"2010-10-30 01:38:30",291378,15.85,292.8,2.035,0.644,18.68,107.7053,19,19.86,9.55,0,110.6,13.27,19.82,254.8
"2010-10-30 01:39:00",291379,16.66,288.8,1.798,0.321,18.91,107.7143,19.03,19.88,9.37,0,110.6,13.27,19.85,250.8
"2010-10-30 01:39:30",291380,17.16,290.1,2.239,0.652,18.4,107.7385,19.09,19.91,9.42,0,110.6,13.27,19.91,252.1
"2010-10-30 01:40:00",291381,16.54,292,3.303,0.643,18.42,107.7391,19.09,19.93,9.99,0,110.6,13.27,19.91,254.0
"2010-10-30 01:40:30",291382,16.83,295.5,2.295,0.434,18.41,107.7391,19.09,19.95,10.18,0,110.6,13.27,19.91,257.5
"2010-10-30 01:41:00",291383,17.1,293.5,2.207,0.674,18.36,107.7391,19.09,19.95,10.12,0,110.6,13.27,19.91,255.5
"2010-10-30 01:41:30",291384,17.15,294.8,1.111,0.385,18.14,107.7391,19.09,19.96,10.56,0,110.6,13.27,19.91,256.8
"2010-10-30 01:42:00",291385,16.42,293.1,2.005,0.545,18.37,107.7391,19.09,19.97,10.54,0,110.6,13.27,19.91,255.1
"2010-10-30 01:42:30",291386,17.8,292.2,1.771,0.7,18.14,107.7391,19.09,19.95,10.64,0,110.6,13.27,19.91,254.2
"2010-10-30 01:43:00",291387,17.92,290.7,1.218,0.354,18.31,107.7329,19.07,19.95,10.72,0,110.6,13.27,19.89,252.7
"2010-10-30 01:43:30",291388,17.83,290.5,2.162,0.254,18.36,107.7152,19.03,19.95,10.6,0,110.6,13.27,19.85,252.5
"2010-10-30 01:44:00",291389,17.9,292.1,1.829,0.506,18.07,107.7053,19,19.94,11,0,110.6,13.27,19.82,254.1
"2010-10-30 01:44:30",291390,17.68,292.6,1.681,0.57,18.33,107.7053,19,19.92,10.98,0,110.6,13.27,19.82,254.6
"2010-10-30 01:45:00",291391,16.63,292.8,1.461,0.658,18.41,107.7053,19,19.91,10.62,0,110.6,13.27,19.82,254.8
"2010-10-30 01:45:30",291392,15.67,294.6,2.64,0.679,18.53,107.6943,18.98,19.89,10.53,0,110.6,13.27,19.79,256.6
"2010-10-30 01:46:00",291393,14.73,295.4,1.718,0.532,18.41,107.7016,18.99,19.89,10.04,0,110.6,13.27,19.81,257.4
"2010-10-30 01:46:30",291394,15.98,297,3.262,0.524,18.25,107.6924,18.97,19.88,10.67,0,110.6,13.27,19.79,259.0
"2010-10-30 01:47:00",291395,16.23,292,1.917,0.224,18.58,107.6884,18.96,19.87,10.35,0,110.6,13.27,19.78,254.0
"2010-10-30 01:47:30",291396,16.4,288.7,1.32,0.502,18.72,107.7025,19,19.88,9.84,0,110.6,13.26,19.81,250.7
"2010-10-30 01:48:00",291397,17.06,289.1,2.072,0.295,18.5,107.7053,19,19.89,10.14,0,110.6,13.26,19.82,251.1